Regional Weather Roundup
Issued by NWS

Home | Current Version | Previous Version | Graphics & Text | Print | Product List | Glossary On
Versions: 1 2 3 4 5 6 7 8 9 10 11 12 13 14 15 16 17 18 19 20 21 22 23 24 25 26 27 28 29 30 31 32 33 34 35 36 37 38 39 40 41 42 43 44 45 46 47 48 49 50
541
ASUS43 KMPX 232101
RWRMN
WEATHER ROUNDUP FOR MINNESOTA
NATIONAL WEATHER SERVICE TWIN CITIES/CHANHASSEN MN
300 PM CST FRI FEB 23 2018


NOTE: "FAIR" INDICATES FEW OR NO CLOUDS BELOW 12,000 FEET WITH NO
SIGNIFICANT WEATHER AND/OR OBSTRUCTIONS TO VISIBILITY. N/A MEANS
CURRENT SKY AND/OR WEATHER CONDITIONS ARE NOT AVAILABLE.

MNZ060>063-068>070-232200-
   Twin Cities Metro

CITY           SKY/WX    TMP DP  RH WIND       PRES   REMARKS
ST PAUL        FAIR      32  22  66 W9        30.20S WCI  24
BLAINE         MOSUNNY   34  21  60 W12       30.18S WCI  25
LAKEVILLE      FAIR      28  21  74 W8        30.21R WCI  20
SOUTH ST PAUL  FAIR      32  22  66 W7        30.19S WCI  26
LAKE ELMO      FAIR      32  23  69 W8        30.19R WCI  25
$$
MNZ001>005-007-008-013>017-022>024-027-028-232200-
   Northwest Minnesota

CITY           SKY/WX    TMP DP  RH WIND       PRES   REMARKS
BEMIDJI        FAIR      23  11  60 W12       30.13R HAZE    WCI  11
HALLOCK        FAIR      18   9  68 W8        30.18S WCI   7
ROSEAU         FAIR      19   9  63 W8        30.13S WCI   9
WARROAD        FAIR      19   9  63 SW12      30.11S WCI   7
THIEF RVR FALL FAIR      15   6  67 W12       30.18  WCI   2
CROOKSTON      FAIR      16   9  73 W10       30.22S WCI   3
FOSSTON        FAIR      19   7  58 SW10      30.17S WCI   8
DETROIT LAKES  FAIR      19  12  73 NW6       30.19S WCI  11
MOORHEAD       FAIR      16   7  67 NW10      30.24S WCI   3
MAHNOMEN       FAIR      16   9  71 SW12      30.19R WCI   3
$$
MNZ006-009>011-018-025>026-232200-
   North Central Minnesota

CITY           SKY/WX    TMP DP  RH WIND       PRES   REMARKS
FLAG ISLAND    FAIR      19  14  79 SE7       30.07S WCI  10
INTL FALLS     FAIR      29  19  66 W9        30.06S WCI  20
WASKISH        PTSUNNY   25  16  68 W13       30.11S WCI  13
LONGVILLE      CLOUDY    30  21  69 W5        30.11R WCI  25
GRAND RAPIDS   CLOUDY    30  21  69 NW6       30.11S WCI  24
ORR            CLOUDY    27  19  74 NW8       30.05R WCI  18
COOK             N/A     27  21  80 W8        30.07S WCI  18
WALKER         CLOUDY    29  19  65 NW8       30.11S WCI  21
$$
MNZ012-019>021-037-232200-
   Northeast Minnesota

CITY           SKY/WX    TMP DP  RH WIND       PRES   REMARKS
DULUTH         FAIR      31  21  66 W13       30.06S WCI  21
ELY            CLOUDY    27  19  74 NW9       30.05R WCI  17
DULUTH HARBOR  CLOUDY    34  25  69 SW8       30.12S WCI  27
TWO HARBORS    PTSUNNY   37  25  60 NW9       30.05S
GRAND MARAIS     N/A     34  24  67 VRB5      30.05R WCI  30
G MARAIS ARPRT CLOUDY    27  18  69 NW7       29.99R WCI  19
$$
MNZ029>031-032-039>041-046>048-054>057-064-232200-
   West Central Minnesota

CITY           SKY/WX    TMP DP  RH WIND       PRES   REMARKS
FERGUS FALLS   FAIR      16   9  73 NW13      30.23R WCI   2
MORRIS         SUNNY     21  14  73 W10       30.24R WCI  10
ELBOW LAKE     FAIR      18  13  80 NW9       30.22S WCI   7
WADENA         FAIR      23  16  74 W9        30.16R WCI  13
GLENWOOD       FAIR      23  18  80 W13       30.21S WCI  11
BENSON         SUNNY     23  16  74 NW13      30.25S WCI  11
ORTONVILLE     SUNNY     25  14  63 NW8       30.25S WCI  16
MADISON          N/A     27  19  74 NW8       30.25F WCI  18
WILLMAR        CLOUDY    21  18  86 W15       30.26R WCI   8
$$
MNZ033>034-036-042>043-049>051-058-059-232200-
   Central Minnesota

CITY           SKY/WX    TMP DP  RH WIND       PRES   REMARKS
SAUK CENTRE    FAIR      25  18  75 W13       30.20R WCI  13
PAYNESVILLE    FAIR      28  21  76 W14       30.21S WCI  16
AITKIN         PTSUNNY   30  19  64 W8        30.11R WCI  23
PINE RIVER     CLOUDY    27  19  74 NW6       30.16S WCI  20
STAPLES        FAIR      27  18  69 W12       30.16R HAZE    WCI  16
LONG PRAIRIE   FAIR      28  19  69 SW8       30.18R WCI  20
LITTLE FALLS   PTSUNNY   32  18  55 W8        30.17R WCI  25
LITCHFIELD     FAIR      28  21  74 W9        30.21S WCI  20
BUFFALO        FAIR      31  20  63 SW9       30.20S WCI  23
MAPLE LAKE     FAIR      32  23  68 W8        30.20S WCI  25
HUTCHINSON     FAIR      26  21  82 W16       30.22F WCI  14
$$
MNZ037-044-045-052-053-232200-
   East Central Minnesota

CITY           SKY/WX    TMP DP  RH WIND       PRES   REMARKS
PRINCETON      FAIR      36  21  55 W8        30.18R
CAMBRIDGE        N/A     34  21  60 W8        30.17S WCI  27
RUSH CITY      FAIR      33  21  62 SW9       30.16R WCI  25
MOOSE LAKE     FAIR      32  21  64 W6        30.09S WCI  26
HINCKLEY       FAIR      32  23  69 W10       30.14S WCI  24
CLOQUET        FAIR      32  19  59 W5        30.08S WCI  27
MCGREGOR       FAIR      32  23  69 W9        30.11S WCI  24
$$
MNZ071>073-080-081-089-090-097-098-232200-
   Southwest Minnesota

CITY           SKY/WX    TMP DP  RH WIND       PRES   REMARKS
MONTEVIDEO     CLOUDY    28  19  69 NW8       30.25S WCI  20
GRANITE FALLS  CLOUDY    27  21  80 W12       30.27F WCI  16
CANBY          SUNNY     27  20  73 NW9       30.26S WCI  18
MARSHALL       CLOUDY    28  20  71 NW13      30.25S WCI  17
OLIVIA         PTSUNNY   27  21  80 NW14      30.23F WCI  15
PIPESTONE      CLOUDY    25  19  80 W7        30.23S WCI  17
WORTHINGTON    MOSUNNY   28  21  75 W13       30.24S WCI  17
JACKSON        SUNNY     27  21  80 W10       30.24S WCI  17
TRACY          SUNNY     27  22  81 NW7       30.23F WCI  20
SLAYTON        SUNNY     26  21  82 W12       30.24R WCI  15
$$
MNZ065>067-074>077-082>085-091>093-232200-
   South Central Minnesota

CITY           SKY/WX    TMP DP  RH WIND       PRES   REMARKS
MANKATO        FAIR      27  20  75 W10       30.24R WCI  17
NEW ULM        SUNNY     25  19  80 W13       30.24R WCI  13
ST JAMES       SUNNY     27  19  74 W12       30.26S WCI  16
FAIRMONT       MOSUNNY   28  20  71 W12       30.26S WCI  18
GLENCOE        FAIR      27  22  80 W9        30.21S WCI  18
FARIBAULT      FAIR      27  19  74 SW10      30.22R WCI  17
WASECA         CLOUDY    23  19  86 SW8       30.24S FOG     WCI  14
ALBERT LEA     FAIR      27  19  74 W7        30.23S WCI  19
$$
MNZ078>079-086>088-094>096-232200-
   Southeast Minnesota

CITY           SKY/WX    TMP DP  RH WIND       PRES   REMARKS
ROCHESTER      CLOUDY    22  19  89 W16       30.20S FOG     WCI   8
RED WING       FAIR      30  19  64 W10       30.20S WCI  21
STANTON        FAIR      28  21  75 SW8       30.20S WCI  20
DODGE CENTER   CLOUDY    21  18  86 W9        30.21S FOG     WCI  11
WINONA         CLOUDY    30  25  80 NW7       30.22R WCI  23
AUSTIN         PTSUNNY   25  19  80 W8        30.22F WCI  16
PRESTON        PTSUNNY   24  20  87 W12       30.21S WCI  13
$$
ABBREVIATIONS USED IN REMARKS
   TC - TEMPERATURES IN CELSIUS
  WCI - WIND CHILL INDEX
   HX - HEAT INDEX
  VSB - VISIBILITY
$$




USA.gov is the U.S. government's official web portal to all federal, state and local government web resources and services.